GEESAT 5-04

导读

GEESAT 5-04是中国吉利未来出行星座(GeeSAT)的第五组卫星之一,于2025年9月8日成功发射入轨。该卫星由吉利旗下时空道宇公司自主研发制造,属于低轨卫星星座的组成部分。依托天地一体化高精时空信息系统,GEESAT 5-04将赋能智慧出行、无人系统、智慧城市等领域,服务吉利汽车智能化出行生态,提供高精度时空信息服务,助力中国商业航天产业布局与发展。

Basic Information
目录编号:
65553
目录名称:
GEESAT 5-04
国际标识:
2025-201D
轨道中心:
EARTH
卫星名称:
GEESAT 5-04
卫星全名:
GEESAT 5-04
卫星状态:
在轨 (已飞行323 天)
发射日期:
2025-09-08 UTC
国别 :
中国 (CN)
星等 :
--
Orbit Information
数据来源 国际轨道数据 AOE轨道数据
星历时间 2026-07-27T18:22:41+0800
16小时前
查看轨道信息
2026-07-26T11:00:00+0800
1天前
查看轨道信息
半长轴 6993.897km 6993.913km
偏心率 0.0007894 0.000811
轨道倾角 49.984° 49.983°
近地点辐角 63.218° 58.113°
升交点赤经 213.191° 219.256°
平近点角 296.956° 150.838°
近地点 610.239km 610.103km
远地点 621.281km 621.449km
周期 97.015分钟 97.015分钟
每日圈数 14.843079 14.843026
Detailed Information
使用方式:
暂无
2D Orbit Map
3D Orbit Map
Orbit Altitude Analysis Chart
Orbit Inclination Analysis Chart
Orbit Comprehensive Analysis Chart
View Comprehensive Chart